CAPE
1 0 2 16 0 0 0 0 3 0 97 12 31 14 0 0 0 0 0 0 0 0 0 0 0 0 0 0 0 0 0 0 0 0 0 0 0 0 0 0 0 0 0 0 0
1 14 9 8 24 1 15 0 13 3 49 26 35 8 0 0 0 0 0 0 0 0 0 0 0 0 0 0 0 0 0 0 0 0 0 0 0 0 0 0 0 0 0 0 0
15 0 2 8 20 14 0 0 0 10 3 24 47 7 0 0 0 0 0 10 0 0 0 0 0 0 0 0 0 0 0 0 0 0 0 0 0 0 0 0 0 0 0 0 0
18 0 0 0 3 9 1 0 0 9 82 56 52 12 0 0 0 2 0 13 0 0 0 0 0 0 0 0 0 0 0 0 0 0 0 0 0 0 0 0 0 0 0 0 0
13 2 0 1 26 25 29 10 0 10 147 30 29 0 0 0 2 4 20 0 0 0 0 0 0 0 0 0 0 0 0 0 0 0 0 0 0 0 0 0 0 0 0 0 0
32 19 2 2 5 19 43 36 3 4 88 119 6 0 0 0 0 6 0 0 0 0 0 0 0 0 0 0 0 0 0 0 0 0 0 0 0 0 0 0 0 0 0 0 0
21 7 6 2 5 3 27 36 42 32 101 1 0 0 0 2 0 1 0 0 0 0 0 0 0 0 0 0 0 0 0 0 0 0 0 0 0 0 0 0 0 0 0 0 0
12 13 6 1 2 2 5 33 85 96 3 0 0 0 1 0 0 0 0 0 0 0 0 0 0 0 0 0 0 0 0 0 0 0 0 0 0 0 0 0 0 0 0 0 0
9 8 9 27 48 32 65 116 66 16 10 0 0 1 3 0 0 0 0 0 0 0 0 0 0 0 0 0 0 0 0 0 0 0 0 0 0 0 0 0 0 0 0 0 0
4 0 52 19 37 29 26 13 1 0 1 0 0 0 1 0 0 0 0 0 0 0 0 0 0 0 0 0 0 0 0 0 0 0 0 0 0 0 0 0 0 0 0 0 0
5 3 42 20 8 0 1 0 0 0 4 0 3 1 1 0 0 0 0 0 0 0 0 0 0 0 0 0 0 0 0 0 0 0 0 0 0 0 0 0 0 0 0 0 0
1 5 16 4 5 4 0 0 3 0 1 10 3 1 0 0 1 0 0 0 0 0 0 0 0 0 0 0 0 0 0 0 0 0 0 0 0 0 0 0 0 0 0 0 0
0 0 22 2 0 0 0 0 0 0 0 2 2 2 0 3 1 0 0 0 0 0 0 0 0 0 0 0 0 0 0 0 0 0 0 0 0 0 0 0 0 0 0 0 0
0 0 1 2 8 0 0 0 0 0 0 0 7 0 4 2 0 0 0 0 0 0 0 0 0 0 0 0 0 0 0 0 0 0 0 0 0 0 0 0 0 0 0 0 0
6 0 0 5 2 7 0 0 0 0 0 0 6 0 0 2 0 0 0 0 0 0 0 0 0 0 0 0 0 0 0 0 1 1 3 0 0 0 0 0 0 0 0 0 0
2 0 0 0 0 0 0 0 0 0 0 0 6 5 5 3 0 0 0 0 0 0 0 0 0 0 0 0 0 0 0 2 1 0 0 0 0 0 0 0 0 0 0 0 0
0 0 0 0 0 0 0 0 0 0 0 0 3 2 0 1 0 0 0 1 1 0 0 0 0 0 0 0 2 1 3 0 0 0 0 0 0 0 0 0 0 2 0 0 3
0 0 0 0 0 0 0 0 0 1 1 0 2 3 3 0 0 0 2 2 0 1 0 0 0 0 0 0 0 0 0 0 0 2 0 0 0 0 0 0 0 4 5 3 2
0 0 0 0 0 0 0 0 2 1 2 2 2 0 0 0 0 0 0 5 2 0 0 0 0 0 0 2 0 0 0 6 0 0 0 0 0 0 0 0 0 1 3 2 2
0 0 0 0 0 0 0 1 1 3 1 0 0 0 0 0 0 0 0 0 1 0 1 0 0 0 0 0 2 0 0 0 0 0 0 0 0 0 0 0 0 1 1 1 3
0 0 0 0 0 0 0 0 0 0 1 1 0 0 0 0 0 0 0 0 0 0 0 0 0 1 1 0 0 0 0 0 0 0 0 0 0 0 0 0 0 0 1 3 4
0 0 0 0 0 0 0 0 0 0 0 0 0 0 0 0 0 0 0 0 0 1 1 0 1 0 4 0 0 1 1 0 0 0 0 0 0 0 1 3 1 0 2 4 3
0 0 0 0 0 0 0 0 0 0 0 0 0 0 0 0 0 0 0 0 0 1 1 0 0 0 0 0 1 0 1 0 0 0 0 0 0 0 3 2 3 2 4 3 3
0 0 0 0 0 0 0 0 0 0 0 0 0 0 0 0 0 0 0 0 0 0 0 2 3 0 0 0 0 0 0 0 0 0 1 0 0 0 0 0 2 4 3 2 2
0 0 0 0 0 0 0 0 0 0 0 0 0 0 0 0 0 0 0 0 0 0 0 4 1 0 0 0 0 0 0 0 0 0 0 0 0 0 0 1 2 4 1 0 0
0 0 0 0 0 0 0 0 0 0 0 0 0 0 0 0 0 0 0 0 0 0 0 0 0 0 0 0 0 0 0 0 0 0 0 0 0 0 0 0 0 1 0 0 0
0 0 0 0 0 0 0 0 0 0 0 0 0 0 0 0 0 0 0 0 0 0 0 0 0 0 0 0 0 0 0 0 0 0 0 0 0 0 0 0 0 0 0 0 0
CIN
-12 -3 -4 -5 0 0 0 0 -17 0 0 -3 -1 0 0 0 0 0 0 0 0 0 0 0 0 0 0 0 0 0 0 0 0 0 0 0 0 0 0 0 0 0 0 0 0
-20 -2 -14 -4 -2 0 0 0 -30 -1 -8 -1 -2 -1 0 0 0 0 0 0 0 0 0 0 0 0 0 0 0 0 0 0 0 0 0 0 0 0 0 0 0 0 0 0 0
-12 -21 -11 -5 -1 -3 0 0 -1 -4 -14 -1 -1 -9 0 0 0 0 0 0 0 0 0 0 0 0 0 0 0 0 0 0 0 0 0 0 0 0 0 0 0 0 0 0 0
-5 0 0 0 -5 -4 -2 0 0 -26 -7 -3 -7 -7 0 0 0 -1 0 -1 0 0 0 0 0 0 0 0 0 0 0 0 0 0 0 0 0 0 0 0 0 0 0 0 0
-13 -16 0 -4 -4 -3 -7 -17 0 -68 0 -10 0 0 0 0 0 -1 -2 0 0 0 0 0 0 0 0 0 0 0 0 0 0 0 0 0 0 0 0 0 0 0 0 0 0
-3 -6 -7 -15 -14 -9 -7 -13 -29 -36 -6 0 -2 0 0 0 0 -8 0 0 0 0 0 0 0 0 0 0 0 0 0 0 0 0 0 0 0 0 0 0 0 0 0 0 0
-7 -12 -15 -16 -19 -19 -21 -16 -11 -21 -6 -4 0 0 -1 0 0 -1 0 0 0 0 0 0 0 0 0 0 0 0 0 0 0 0 0 0 0 0 0 0 0 0 0 0 0
-19 -34 -44 -58 -16 -28 -30 -27 -12 -1 -3 0 0 0 0 0 0 0 0 0 0 0 0 0 0 0 0 0 0 0 0 0 0 0 0 0 0 0 0 0 0 0 0 0 0
-30 -47 -14 -6 -24 -22 -8 -3 -1 -4 -9 -1 -3 -4 0 0 0 0 0 0 0 0 0 0 0 0 0 0 0 0 0 0 0 0 0 0 0 0 0 0 0 0 0 0 0
-38 0 0 0 -1 -8 -18 -45 -1 -3 -24 0 0 -4 -2 -1 0 0 0 0 0 0 0 0 0 0 0 0 0 0 0 0 0 0 0 0 0 0 0 0 0 0 0 0 0
-33 -22 0 -2 -6 0 -6 -5 0 0 -1 0 -1 0 -1 0 0 0 0 0 0 0 0 0 0 0 0 0 0 0 0 0 0 0 0 0 0 0 0 0 0 0 0 0 0
-34 -14 -6 -23 -22 -21 0 0 0 0 0 0 0 -1 -1 0 0 0 0 0 0 0 0 0 0 0 0 0 0 0 0 0 0 0 0 0 0 0 0 0 0 0 0 0 0
0 0 -7 -18 0 0 0 0 0 0 0 0 -2 -1 -1 -2 -1 0 0 0 0 0 0 0 0 0 0 0 0 0 0 0 0 0 0 0 0 0 0 0 0 0 0 0 0
0 0 -2 -22 -7 0 0 0 0 0 0 0 0 -1 -1 -1 0 0 0 0 0 0 0 0 0 0 0 0 0 0 0 0 0 0 0 0 0 0 0 0 0 0 0 0 0
-2 0 0 -3 -1 -1 0 0 0 0 0 0 0 0 -1 -2 0 0 0 0 0 0 0 0 0 0 0 0 0 0 0 0 0 0 0 0 0 0 0 0 0 0 0 0 0
-9 0 0 0 0 0 0 0 0 0 0 0 0 -1 0 -1 0 0 0 0 0 0 0 0 0 0 0 0 0 0 0 0 -1 -1 0 0 0 0 0 0 0 0 0 0 -1
0 0 0 0 0 0 0 0 0 0 0 0 -1 -1 0 -1 0 -1 -1 0 0 0 0 0 0 0 0 0 -1 0 0 0 0 0 -1 0 0 0 0 0 -1 -1 -1 0 -1
0 0 0 0 0 0 0 0 0 0 0 0 -1 -1 -1 -1 0 0 0 0 0 0 0 0 0 0 0 0 0 0 0 -1 0 -2 -2 0 0 0 0 0 0 0 0 -1 0
0 0 0 0 0 0 0 0 -2 0 -1 0 -1 0 -1 0 -1 0 0 0 0 0 0 0 0 0 0 0 0 0 0 -1 0 0 0 0 0 0 0 0 0 0 0 0 0
0 0 0 0 0 0 0 0 -1 -1 -1 0 0 0 0 0 0 0 0 0 0 -1 0 -1 0 0 -1 0 0 0 0 0 0 0 -1 0 0 0 0 0 0 0 0 0 0
0 0 0 0 0 0 -1 0 0 0 0 -1 0 0 0 0 0 0 0 0 0 -1 0 0 0 -1 -1 0 0 0 0 0 0 0 0 0 0 0 0 0 0 0 0 0 0
0 0 0 0 0 0 0 0 0 0 0 0 0 0 0 0 0 0 0 -1 0 0 0 0 0 0 -1 0 0 -1 0 0 0 -1 -1 0 0 0 0 0 0 0 0 0 0
0 0 0 0 0 0 0 0 0 0 0 0 0 0 0 0 0 0 0 0 0 0 -1 0 0 0 0 0 0 0 0 0 0 0 0 0 0 0 0 0 0 0 0 0 0
0 0 0 0 0 0 0 0 0 0 0 0 0 0 0 0 0 0 0 0 0 0 0 -1 0 0 0 0 0 0 0 0 0 0 -1 0 0 0 0 0 0 0 0 0 0
0 0 0 0 0 0 0 0 0 0 0 0 0 0 0 0 0 0 0 0 0 0 0 0 0 0 0 0 0 0 0 0 0 0 0 0 0 0 0 0 0 0 0 0 0
0 0 0 0 0 0 0 0 0 0 0 0 0 0 0 0 0 0 0 0 0 0 0 0 0 0 0 0 0 0 0 0 0 0 0 0 0 0 0 0 0 0 0 0 0
0 0 0 0 0 0 0 0 0 0 0 0 0 0 0 0 0 0 0 0 0 0 0 0 0 0 0 0 0 0 0 0 0 0 0 0 0 0 0 0 0 0 0 0 0
Wind_Speed
15 18 17 17 19 18 19 19 18 17 19 15 14 13 12 12 12 14 15 15 14 12 15 11 11 11 12 14 15 16 22 25 24 24 23 18 20 21 22 26 21 21 22 20 21
11 11 13 16 16 16 17 19 20 18 16 14 13 12 11 11 13 14 13 12 11 12 12 11 12 11 15 16 17 18 24 24 20 20 22 19 22 22 24 26 28 29 27 26 27
14 12 13 13 13 14 15 18 20 21 17 15 12 10 11 13 15 16 13 11 11 14 12 14 12 13 17 16 17 19 23 21 21 21 22 24 25 25 26 30 29 30 29 29 31
21 18 15 12 10 12 14 17 19 23 16 16 9 6 11 14 21 14 13 15 11 12 11 11 12 16 18 20 18 22 22 22 22 22 25 27 27 29 29 31 29 28 32 35 37
22 21 18 15 10 16 15 16 17 19 17 11 8 7 11 13 13 14 9 9 9 11 11 14 14 15 18 19 19 23 22 23 24 26 28 30 32 33 35 31 30 31 34 37 38
24 20 17 12 15 20 20 17 16 20 20 10 6 8 12 15 13 10 10 11 10 10 11 13 14 14 14 17 22 21 22 25 25 27 29 33 35 33 28 25 27 29 32 34 36
15 11 15 19 11 15 21 22 22 19 16 9 7 7 7 11 12 10 9 9 9 9 9 10 12 15 11 16 18 21 27 26 26 26 28 31 38 36 31 29 33 33 33 34 35
18 17 15 14 9 13 19 23 22 7 9 5 9 7 10 12 11 6 5 6 6 7 7 9 9 12 16 14 19 24 26 30 23 25 26 27 39 32 26 29 34 37 40 42 41
19 18 18 20 17 4 8 6 11 11 9 3 8 8 5 14 6 9 10 7 7 9 10 12 13 16 16 20 23 23 31 29 32 24 30 29 41 33 32 38 44 44 43 42 41
19 19 20 22 21 23 18 9 8 5 4 7 7 8 10 4 7 5 8 9 10 10 13 16 16 17 18 21 27 26 30 29 32 28 31 39 47 44 42 42 43 42 42 41 40
20 17 14 14 10 11 3 7 7 5 3 7 7 2 3 3 7 8 10 10 12 14 16 17 18 19 19 20 21 22 26 31 32 32 35 38 44 44 43 42 43 42 40 38 34
21 16 10 12 6 5 6 7 11 12 4 10 9 5 4 6 6 8 12 12 13 13 14 16 18 17 17 17 19 22 26 31 31 27 33 40 49 49 44 40 36 35 32 31 37
21 17 9 7 5 4 3 9 8 12 2 6 6 5 7 7 10 10 13 13 13 13 15 16 14 12 15 17 20 22 27 31 34 37 39 39 44 32 28 28 26 26 29 34 41
22 23 6 9 7 9 3 8 11 11 6 8 10 10 10 9 11 13 14 14 14 14 15 15 14 17 18 20 21 26 25 28 33 35 35 33 45 38 34 28 26 28 31 39 44
26 24 22 6 12 13 10 15 13 13 11 13 11 13 11 12 9 13 14 15 13 13 13 13 12 15 17 20 18 24 26 29 30 32 37 29 33 33 24 27 24 27 38 43 47
31 26 22 14 6 10 10 13 14 11 9 12 13 12 9 11 12 12 14 14 15 15 15 16 16 17 20 19 19 24 27 26 24 26 30 23 19 25 24 27 32 39 44 48 47
30 29 25 16 20 16 14 13 11 9 12 9 10 10 10 11 11 13 13 13 14 13 14 16 16 15 14 18 17 19 21 23 23 22 26 17 16 14 28 23 35 43 46 45 42
26 27 25 20 13 12 14 15 12 12 11 13 8 8 10 10 11 11 11 12 13 14 14 17 16 13 11 16 18 18 19 20 24 23 27 15 15 18 13 23 36 41 41 39 37
22 21 19 13 11 12 16 21 22 24 23 25 20 18 17 12 11 10 11 12 13 13 15 17 16 12 13 18 3 10 9 18 22 14 16 14 14 12 4 23 28 24 18 18 23
21 21 18 9 11 16 20 27 24 21 25 25 21 21 22 22 21 20 19 17 12 14 15 12 14 16 16 16 18 18 16 16 17 15 15 13 12 12 14 21 20 17 13 11 8
20 25 18 13 18 23 28 29 29 24 20 20 20 20 19 21 20 20 19 18 18 18 17 16 16 17 17 18 17 17 15 16 16 17 14 12 11 9 13 15 11 9 8 5 3
22 28 14 16 26 24 29 24 22 21 20 19 19 19 21 21 21 20 20 17 18 18 16 17 16 16 16 18 17 16 15 15 15 15 14 13 11 7 7 8 4 4 3 3 5
25 23 17 17 30 30 26 24 21 21 19 19 20 19 19 20 19 20 20 18 18 17 16 18 17 14 16 15 16 15 17 16 15 14 14 13 11 6 6 4 2 3 7 9 9
22 24 22 22 21 29 27 24 24 20 20 19 20 19 19 19 18 18 18 18 18 17 16 16 15 16 15 14 14 14 15 17 16 14 12 12 9 7 7 5 3 2 4 7 10
20 21 20 24 24 23 21 22 22 21 20 19 20 19 19 18 18 18 18 16 17 16 16 15 15 14 15 17 16 17 17 18 17 16 14 12 9 8 6 5 5 1 1 4 7
20 21 20 22 21 21 20 21 21 20 19 20 19 19 18 17 16 16 17 16 16 16 15 15 13 13 11 14 15 16 19 19 19 19 16 15 11 12 10 10 7 4 2 3 6
18 21 18 21 20 19 18 19 19 18 18 17 16 16 16 15 14 14 15 14 14 14 14 14 14 11 12 13 14 14 16 19 19 18 17 14 13 12 11 10 8 6 5 14 11
Wind_Direction
308 298 300 292 283 279 267 261 270 282 245 247 249 255 263 272 279 276 272 283 288 284 282 286 284 283 280 280 285 288 278 277 277 278 283 298 287 287 288 280 285 285 284 292 294
6 354 323 302 292 283 274 261 262 274 247 243 242 251 258 265 272 275 284 282 287 284 280 276 274 274 279 278 280 273 275 279 290 294 288 295 292 293 288 280 278 279 281 284 286
50 24 5 329 305 292 279 271 263 262 255 240 242 248 255 260 265 278 281 280 288 282 284 281 278 279 277 276 278 276 277 285 289 293 295 292 291 290 289 281 282 279 282 284 283
86 81 84 7 345 316 290 276 270 262 248 238 239 244 253 263 258 277 277 275 282 285 282 278 275 275 274 271 280 277 281 287 289 292 292 290 292 288 286 284 290 291 285 283 280
89 89 105 174 359 288 293 281 269 256 243 230 205 236 258 259 270 283 278 286 285 282 278 276 274 278 274 277 280 278 283 286 290 291 291 290 287 287 285 288 290 289 288 284 282
91 107 109 161 240 260 265 276 266 250 241 208 203 256 273 258 281 285 288 281 279 281 284 282 283 288 285 282 279 287 286 287 290 291 293 288 288 289 293 296 292 291 289 287 286
353 314 337 359 228 245 231 238 241 249 244 156 243 269 286 268 281 289 295 289 285 289 288 301 294 287 289 287 289 288 284 287 287 292 291 296 286 284 290 291 290 289 289 289 288
360 340 316 293 216 218 230 220 217 185 127 132 239 259 253 257 284 306 319 331 329 325 319 317 317 303 294 295 292 286 287 283 288 293 294 296 281 293 298 296 291 289 287 286 286
357 344 337 349 335 37 26 81 110 129 166 160 240 226 249 266 302 306 296 295 312 316 315 307 302 291 291 284 284 289 280 285 288 294 292 290 284 291 296 293 289 288 288 287 287
359 354 18 26 30 52 59 85 135 163 265 265 264 263 271 299 304 314 305 297 288 289 291 289 289 284 286 285 278 282 284 288 288 293 294 288 284 289 292 290 289 289 289 288 287
9 347 17 10 14 26 18 179 180 193 295 265 285 323 220 295 293 298 297 293 289 290 282 289 283 280 286 290 292 292 292 291 295 298 296 292 291 293 293 292 290 289 289 289 288
46 357 347 348 321 333 289 230 210 208 52 29 41 65 281 287 290 305 284 286 288 285 290 289 284 292 297 299 298 298 297 296 302 306 300 297 292 293 292 291 294 293 291 290 292
78 53 346 308 280 14 24 187 207 201 279 336 340 329 301 297 271 279 279 283 292 294 294 294 301 306 301 302 301 301 300 300 301 303 301 300 296 302 304 301 301 299 296 295 296
100 101 164 233 244 189 132 197 216 263 254 281 284 283 282 276 279 274 282 285 293 297 298 302 303 300 302 302 303 301 309 306 304 305 301 312 295 301 298 298 298 299 301 302 301
94 115 131 232 195 197 220 206 223 232 254 257 265 254 263 273 265 275 282 280 296 304 309 311 318 313 308 307 311 305 312 309 307 305 304 310 301 305 309 304 304 305 305 304 303
92 107 136 170 193 208 227 232 243 262 286 257 243 241 272 267 270 270 272 270 274 290 299 304 314 312 309 317 315 312 311 312 316 313 305 310 311 310 311 312 306 304 303 304 302
98 102 121 163 171 194 226 245 271 280 239 252 254 264 280 276 280 278 288 293 303 316 315 315 315 329 329 317 323 322 322 312 301 296 297 328 327 323 314 328 313 305 305 308 304
110 109 117 138 188 211 209 172 184 215 243 232 269 297 300 306 301 306 312 319 324 326 317 315 323 326 356 309 308 310 309 296 275 298 285 343 341 346 12 325 309 309 309 310 308
117 120 129 154 179 187 161 135 146 155 169 163 185 192 205 252 273 289 290 289 296 301 264 264 278 2 123 221 240 323 353 237 287 208 243 177 209 222 226 284 297 294 285 275 270
113 115 120 163 172 159 142 129 142 161 155 157 155 169 161 167 172 181 185 200 264 226 219 257 263 209 221 223 193 191 224 212 187 212 200 196 207 205 275 294 297 297 292 284 266
112 105 116 135 136 127 121 125 129 145 156 158 162 163 169 163 173 170 174 180 187 184 186 190 188 176 179 177 173 160 180 195 212 203 193 200 196 157 283 293 300 308 318 327 312
110 99 127 136 117 124 119 131 138 139 145 146 150 151 153 155 158 166 168 178 177 175 180 165 178 187 187 150 163 177 180 189 196 193 194 199 182 191 269 295 314 318 358 35 60
103 111 131 137 109 117 126 129 136 140 143 145 143 151 155 153 152 161 162 172 167 168 172 157 165 182 173 177 184 179 183 188 206 194 179 184 173 236 266 282 76 62 81 82 86
109 104 115 122 127 120 120 125 126 139 139 143 144 147 146 147 155 154 156 165 168 168 173 175 190 178 198 214 201 194 189 192 191 184 207 189 218 232 269 268 281 13 58 77 81
109 110 123 114 118 122 126 128 128 129 134 137 135 141 140 143 147 151 154 163 159 160 167 181 180 190 211 222 210 210 204 200 187 190 186 176 183 226 211 214 237 198 39 24 10
109 112 122 121 128 126 126 128 127 132 136 133 136 133 135 148 153 153 155 156 161 161 173 182 195 226 208 201 210 211 211 202 198 200 199 209 206 188 188 149 170 200 297 333 343
115 121 125 121 124 128 130 129 133 135 134 144 145 144 144 151 157 164 173 177 179 180 174 195 217 212 207 202 237 196 183 182 178 184 177 187 196 204 201 174 191 163 139 88 83